TimeEST,TemperatureF,Dew PointF,Humidity,Sea Level PressureIn,VisibilityMPH,Wind Direction,Wind SpeedMPH,Gust SpeedMPH,PrecipitationIn,Events,Conditions,WindDirDegrees,DateUTC
12:53 AM,1.9,-11.0,55,30.35,10.0,WNW,9.2,-,N/A,,Clear,290,2014-01-28 05:53:00
1:53 AM,-0.0,-11.0,60,30.40,10.0,WNW,9.2,-,N/A,,Clear,290,2014-01-28 06:53:00
2:53 AM,-0.9,-11.0,62,30.40,10.0,Variable,4.6,-,N/A,,Clear,0,2014-01-28 07:53:00
3:53 AM,-2.0,-11.0,66,30.40,10.0,Calm,Calm,-,N/A,,Clear,0,2014-01-28 08:53:00
4:53 AM,-2.9,-11.0,68,30.41,10.0,Calm,Calm,-,N/A,,Clear,0,2014-01-28 09:53:00
5:53 AM,-5.1,-11.0,76,30.43,10.0,Calm,Calm,-,N/A,,Clear,0,2014-01-28 10:53:00
6:53 AM,-7.1,-11.0,83,30.46,10.0,Calm,Calm,-,N/A,,Clear,0,2014-01-28 11:53:00
7:53 AM,-7.1,-11.0,83,30.49,10.0,Calm,Calm,-,N/A,,Clear,0,2014-01-28 12:53:00
8:53 AM,-4.0,-11.0,72,30.48,10.0,Calm,Calm,-,N/A,,Clear,0,2014-01-28 13:53:00
9:53 AM,-2.0,-11.0,66,30.48,10.0,Calm,Calm,-,N/A,,Clear,0,2014-01-28 14:53:00
10:53 AM,1.0,-9.9,60,30.48,10.0,Calm,Calm,-,N/A,,Clear,0,2014-01-28 15:53:00
11:53 AM,1.9,-9.0,60,30.46,10.0,Calm,Calm,-,N/A,,Partly Cloudy,0,2014-01-28 16:53:00
12:53 PM,3.0,-11.0,52,30.42,10.0,Calm,Calm,-,N/A,,Mostly Cloudy,0,2014-01-28 17:53:00
1:53 PM,3.9,-11.0,50,30.39,10.0,NNE,3.5,-,N/A,,Mostly Cloudy,30,2014-01-28 18:53:00
2:53 PM,5.0,-9.9,50,30.38,10.0,Calm,Calm,-,N/A,,Partly Cloudy,0,2014-01-28 19:53:00
3:53 PM,6.1,-11.0,45,30.37,10.0,Calm,Calm,-,N/A,,Mostly Cloudy,0,2014-01-28 20:53:00
4:53 PM,6.1,-11.9,44,30.36,10.0,Calm,Calm,-,N/A,,Overcast,0,2014-01-28 21:53:00
5:53 PM,7.0,-11.0,44,30.37,10.0,WSW,3.5,-,N/A,,Overcast,250,2014-01-28 22:53:00
6:53 PM,7.0,-9.9,46,30.36,10.0,Calm,Calm,-,N/A,,Overcast,0,2014-01-28 23:53:00
7:53 PM,6.1,-11.0,45,30.35,10.0,Calm,Calm,-,N/A,,Overcast,0,2014-01-29 00:53:00
8:53 PM,6.1,-9.0,50,30.34,10.0,Calm,Calm,-,N/A,,Overcast,0,2014-01-29 01:53:00
9:53 PM,6.1,-9.0,50,30.33,10.0,Calm,Calm,-,N/A,,Overcast,0,2014-01-29 02:53:00
10:53 PM,3.9,-8.0,58,30.33,10.0,SW,3.5,-,N/A,,Mostly Cloudy,220,2014-01-29 03:53:00
11:53 PM,1.0,-8.0,66,30.33,10.0,Calm,Calm,-,N/A,,Partly Cloudy,0,2014-01-29 04:53:00